Regional Weather Roundup
Issued by NWS Sioux Falls, SD

Home | Current Version | Previous Version | Text Only | Print | Product List | Glossary On
Versions: 1 2 3 4 5 6 7 8 9 10 11 12 13 14 15 16 17 18 19 20 21 22 23 24 25 26 27 28 29 30 31 32 33 34 35 36 37 38 39 40 41 42 43 44 45 46 47 48 49 50
000
ASUS43 KFSD 280710
RWRFSD

WEATHER ROUNDUP FOR SE SOUTH DAKOTA/SW MINNESOTA/NW IOWA
NATIONAL WEATHER SERVICE SIOUX FALLS SD
200 AM CDT TUE APR 28 2015

NOTE: "FAIR" INDICATES FEW OR NO CLOUDS BELOW 12,000 FEET WITH NO
SIGNIFICANT WEATHER AND OR OBSTRUCTIONS TO VISIBILITY.


SDZ038>040-050-052>070-280800-
SOUTHEAST SOUTH DAKOTA

CITY           SKY/WX    TMP DP  RH WIND       PRES   REMARKS
BROOKINGS      CLEAR     41  28  60 N3        30.22S
CHAMBERLAIN    PTCLDY    47  42  84 NW8       30.29S
HURON          PTCLDY    47  41  80 NW9       30.25S
MADISON        FAIR      41  21  45 NW6       30.21S
MITCHELL       CLEAR     48  42  80 NW13      30.24S
SIOUX FALLS    CLEAR     42  33  70 CALM      30.20S
WINNER         FAIR      44  39  82 NW10      30.31F
YANKTON        PTCLDY    45  36  70 NW10      30.22S
$$

MNZ071-072-080-081-089-090-097-098-280800-
SOUTHWEST MINNESOTA

CITY           SKY/WX    TMP DP  RH WIND       PRES   REMARKS
FAIRMONT       PTCLDY    45  28  53 W6        30.17S
JACKSON        PTCLDY    45  27  49 W3        30.19S
LUVERNE        CLEAR     43  27  52 NE3       30.21S
MARSHALL       CLEAR     43  27  52 NW12      30.19R
MONTEVIDEO     PTCLDY    46  30  53 N8        30.19S
PIPESTONE      CLEAR     48  28  46 CALM      30.19F
REDWOOD FALLS  PTCLDY    48  28  46 W5        30.17S
TRACY          PTCLDY    47  25  41 SW7       30.18F
WINDOM         PTCLDY    41  27  56 CALM      30.19S
WORTHINGTON    PTCLDY    43  21  42 NW3       30.20S
$$

IAZ001>003-012>014-020>022-031-032-NEZ013-014-SDZ071-280800-
NORTHWEST IOWA

CITY           SKY/WX    TMP DP  RH WIND       PRES   REMARKS
CHEROKEE       CLEAR     39  35  85 CALM      30.20S
DENISON        CLEAR     41  37  87 CALM      30.18S
ESTHERVILLE    PTCLDY    38  25  59 W6        30.18S
LE MARS        CLEAR     39  32  75 CALM      30.21S
ORANGE CITY    CLEAR     48  25  40 CALM      30.20S
SHELDON        PTCLDY    37  25  60 CALM      30.19S
SIOUX CITY     CLEAR     42  29  59 CALM      30.21R
SPENCER        PTCLDY    39  30  70 CALM      30.19S
STORM LAKE     CLEAR     55  28  35 CALM      30.20S
$$

ABBREVIATIONS USED IN REMARKS
   TC - TEMPERATURE IN CELSIUS
  WCI - WIND CHILL INDEX
   HX - HEAT INDEX
  VSB - VISIBILITY




USA.gov is the U.S. government's official web portal to all federal, state and local government web resources and services.